[[{"header":{"parameterUnit":"m.s-1","parameterCategory":1,"la1":30.2991,"la2":30.254,"lo1":-89.0895,"lo2":-89.0444,"dy":0.0017,"dx":0.0017,"nx":28,"ny":28,"refTime":"2024-08-11T03:00:00:Z","depth":0,"parameterNumber":2,"parameterNumberName":"U-component_of_WINDS"},"data":[0,0,0,0,0,0,0,0,0,0,0,0,0,0,0,0,0,0,0,0,0,0,0,0,0,0,0,0,0,0,0,0,0,0,0,0,0,0,0,0,0,0,0,0,0,0,0,0,0,0,0,0,0,0,0,0,0,0,-1.5032,-1.5032,0,-1.5037,-1.5038,-1.5038,-1.495,-1.4947,-1.4945,-1.4942,-1.4954,-1.4957,-1.4959,0,0,0,0,0,0,0,0,0,0,0,0,0,-1.4948,-1.495,-1.5032,-1.5032,-1.5032,-1.5037,-1.5038,-1.5038,-1.495,-1.4947,-1.4944,-1.4941,-1.4953,-1.4956,-1.4959,0,0,0,0,0,0,0,0,0,0,0,0,0,-1.4972,-1.495,-1.5032,-1.4988,-1.4985,-1.5037,-1.5038,-1.5038,-1.4951,-1.4947,-1.4943,-1.494,-1.4952,-1.4956,-1.496,-1.5056,0,0,-1.4972,-1.4973,0,0,0,0,0,0,0,0,-1.4971,-1.4975,-1.4995,-1.4992,-1.4987,-1.4989,-1.5012,-1.5044,-1.4951,-1.4964,-1.4942,-1.4938,-1.4969,-1.4971,-1.498,-1.5056,-1.5057,-1.4972,-1.4974,-1.4976,-1.4977,0,0,0,0,0,0,0,-1.4969,-1.4975,-1.5034,-1.4995,-1.4991,-1.497,-1.4969,-1.5018,-1.4987,-1.4962,-1.4956,-1.4958,-1.4966,-1.4977,-1.498,-1.5057,-1.4972,-1.4975,-1.4978,-1.4979,-1.5209,-1.5213,0,0,0,0,0,0,-1.4973,-1.4974,-1.5034,-1.5034,-1.497,-1.4974,-1.4974,-1.4992,-1.4986,-1.4981,-1.4961,-1.4953,-1.4972,-1.4976,-1.498,-1.509,-1.4976,-1.4979,-1.4982,-1.5206,-1.521,-1.5214,0,0,0,0,0,0,-1.4971,-1.4979,-1.5034,-1.5002,-1.5007,-1.498,-1.5001,-1.4994,-1.5005,-1.4985,-1.4979,-1.4977,-1.497,-1.4975,-1.5037,-1.5089,-1.4981,-1.4985,-1.5201,-1.5207,-1.5212,-1.5312,0,0,0,0,0,0,-1.4969,-1.4979,-1.5015,-1.5004,-1.501,-1.5089,-1.5004,-1.4997,-1.5011,-1.5001,-1.4998,-1.4995,-1.4967,-1.5031,-1.5041,-1.5093,-1.4988,-1.5196,-1.5204,-1.521,-1.5304,-1.5321,-1.5335,0,0,0,0,0,-1.4967,-1.5044,-1.5017,-1.5025,-1.5053,-1.5092,-1.5096,-1.5061,-1.5015,-1.5051,-1.5038,-1.4995,-1.5082,-1.5038,-1.5048,-1.5102,-1.5193,-1.5202,-1.521,-1.5297,-1.5317,-1.5334,0,0,0,0,0,0,-1.5065,-1.5042,-1.5012,-1.5088,-1.5092,-1.5077,-1.5122,-1.5084,-1.5104,-1.5094,-1.5052,-1.5052,-1.5121,-1.5118,-1.5069,-1.5193,-1.513,-1.514,-1.5193,-1.5212,-1.5227,-1.5226,-1.4991,0,0,0,0,0,-1.5095,-1.5128,-1.5107,-1.5176,-1.5179,-1.515,-1.5166,-1.5139,-1.5143,-1.5145,-1.5136,-1.5143,-1.5171,-1.5192,-1.5217,-1.5303,-1.53,-1.5345,-1.536,-1.5373,-1.5383,-1.5426,-1.5445,-1.5242,-1.5242,-1.5242,0,0,-1.5159,-1.515,-1.5174,-1.5195,-1.5196,-1.5231,-1.5153,-1.5194,-1.522,-1.5152,-1.5208,-1.5202,-1.5207,-1.5281,-1.5313,-1.528,-1.5438,-1.5384,-1.5394,-1.5397,-1.5437,-1.5456,-1.5473,-1.5248,-1.5247,-1.5246,0,0,-1.5292,-1.5289,-1.5345,-1.5346,-1.5346,-1.5326,-1.534,-1.533,-1.5322,-1.5378,-1.5327,-1.5358,-1.5409,-1.5413,-1.5422,-1.5554,-1.5515,-1.5564,-1.5644,-1.5687,-1.5703,-1.5717,-1.5762,-1.5779,-1.5574,-1.5574,-1.5575,0,-1.5371,-1.542,-1.5379,-1.5422,-1.5433,-1.537,-1.5427,-1.5431,-1.5441,-1.545,-1.5413,-1.5473,-1.5472,-1.5545,-1.5577,-1.5587,-1.5601,-1.5564,-1.5703,-1.5717,-1.5729,-1.5772,-1.5789,-1.558,-1.558,-1.5579,-1.5578,0,-1.5517,-1.5552,-1.5597,-1.5605,-1.562,-1.5671,-1.5638,-1.5659,-1.563,-1.5613,-1.567,-1.5666,-1.5689,-1.5704,-1.5678,-1.5773,-1.5752,-1.5711,-1.5645,-1.5755,-1.5794,-1.5811,-1.5589,-1.5587,-1.5585,-1.5583,0,0,-1.5713,-1.5695,-1.5712,-1.5714,-1.5708,-1.5735,-1.5782,-1.5801,-1.582,-1.5829,-1.5866,-1.591,-1.5869,-1.588,-1.5853,-1.5891,-1.5993,-1.5843,-1.5843,-1.587,-1.6095,-1.6126,-1.6145,-1.5967,-1.597,-1.5972,-1.6094,0,-1.5841,-1.5917,-1.588,-1.5962,-1.5993,-1.5933,-1.5973,-1.5975,-1.5961,-1.5986,-1.5971,-1.6001,-1.5947,-1.5953,-1.5987,-1.5973,-1.6037,-1.5964,-1.6001,-1.6003,-1.6,-1.6166,-1.6199,-1.6315,-1.611,-1.6112,-1.6114,0,-1.6,-1.6011,-1.6095,-1.6081,-1.6093,-1.613,-1.6143,-1.6168,-1.6169,-1.6155,-1.6166,-1.6129,-1.6175,-1.611,-1.6172,-1.6123,-1.6136,-1.6131,-1.6135,-1.6136,-1.6064,-1.6171,-1.6351,-1.6368,-1.6138,-1.6136,-1.6135,0,-1.6132,-1.6169,-1.6223,-1.6226,-1.6213,-1.6239,-1.6235,-1.6232,-1.6245,-1.6258,-1.6266,-1.6285,-1.6295,-1.6311,-1.628,-1.6237,-1.6346,-1.6279,-1.6336,-1.6337,-1.6361,-1.6359,-1.6544,-1.6372,-1.6372,-1.6372,-1.6371,0,-1.6277,-1.633,-1.6281,-1.6315,-1.6372,-1.633,-1.6388,-1.6378,-1.6375,-1.6405,-1.6356,-1.6386,-1.6345,-1.6371,-1.6348,-1.6401,-1.6407,-1.6398,-1.6391,-1.6401,-1.6402,-1.6408,-1.6399,-1.6376,-1.6375,-1.6374,-1.6374,0,-1.6434,-1.6404,-1.6458,-1.6439,-1.6436,-1.6479,-1.6463,-1.6493,-1.6475,-1.6514,-1.6521,-1.6493,-1.652,-1.6492,-1.6519,-1.6503,-1.6574,-1.6557,-1.6573,-1.6567,-1.6625,-1.6619,-1.6819,-1.6842,-1.6657,-1.6659,-1.6661,0,-1.6528,-1.6567,-1.6551,-1.6566,-1.6564,-1.6591,-1.6603,-1.6563,-1.6578,-1.658,-1.661,-1.6633,-1.6649,-1.6696,-1.6679,-1.6699,-1.668,-1.6749,-1.6683,-1.6691,-1.6679,-1.6676,-1.6679,-1.6762,-1.6764,-1.6766,-1.6768,0,-1.6697,-1.6679,-1.6697,-1.671,-1.6725,-1.6734,-1.6739,-1.6755,-1.6713,-1.6733,-1.6759,-1.6772,-1.6797,-1.6821,-1.6835,-1.6832,-1.6793,-1.6788,-1.6802,-1.6812,-1.6819,-1.6814,-1.6608,-1.6784,-1.6782,-1.6781,-1.678,-1.678,-1.6824,-1.6854,-1.6847,-1.6868,-1.6867,-1.6872,-1.6899,-1.6882,-1.6903,-1.6918,-1.6894,-1.6927,-1.6925,-1.694,-1.6941,-1.6966,-1.6937,-1.6958,-1.6962,-1.6968,-1.6975,-1.6817,-1.6969,-1.6969,-1.6968,-1.6968,-1.6967,0,-1.6988,-1.698,-1.7,-1.7006,-1.7023,-1.6983,-1.6986,-1.7003,-1.7031,-1.7032,-1.7047,-1.7077,-1.7099,-1.7083,-1.7101,-1.7124,-1.7107,-1.713,-1.7127,-1.7127,-1.7001,-1.6986,-1.7144,-1.7144,-1.7144,-1.7144,-1.7144,-1.7144,-1.7075,-1.7124,-1.7105,-1.7152,-1.7144,-1.7173,-1.7178,-1.7182,-1.7182,-1.7216,-1.7233,-1.7221,-1.7215,-1.7232,-1.725,-1.7244,-1.7253,-1.7282,-1.7271,-1.7153,-1.7136,-1.7119,-1.7105,-1.7285,-1.7285,-1.7393,-1.7394,-1.7395]},{"header":{"parameterUnit":"m.s-1","parameterCategory":1,"la1":30.2991,"la2":30.254,"lo1":-89.0895,"lo2":-89.0444,"dy":0.0017,"dx":0.0017,"nx":28,"ny":28,"refTime":"2024-08-11T03:00:00:Z","depth":0,"parameterNumber":3,"parameterNumberName":"V-component_of_WINDS"},"data":[0,0,0,0,0,0,0,0,0,0,0,0,0,0,0,0,0,0,0,0,0,0,0,0,0,0,0,0,0,0,0,0,0,0,0,0,0,0,0,0,0,0,0,0,0,0,0,0,0,0,0,0,0,0,0,0,0,0,-2.2995,-2.2995,0,-2.2981,-2.2981,-2.298,-2.2961,-2.2961,-2.296,-2.296,-2.2944,-2.2944,-2.2944,0,0,0,0,0,0,0,0,0,0,0,0,0,-2.3002,-2.3002,-2.2995,-2.2995,-2.2994,-2.2981,-2.298,-2.298,-2.2961,-2.2961,-2.296,-2.296,-2.2944,-2.2944,-2.2944,0,0,0,0,0,0,0,0,0,0,0,0,0,-2.2995,-2.3002,-2.2995,-2.2983,-2.2982,-2.2981,-2.298,-2.298,-2.2961,-2.2961,-2.296,-2.296,-2.2944,-2.2944,-2.2944,-2.2953,0,0,-2.2943,-2.2943,0,0,0,0,0,0,0,0,-2.2995,-2.2995,-2.2985,-2.2984,-2.2983,-2.2972,-2.2977,-2.2971,-2.2961,-2.2969,-2.296,-2.2959,-2.2954,-2.2953,-2.2951,-2.2952,-2.2951,-2.2943,-2.2943,-2.2943,-2.2943,0,0,0,0,0,0,0,-2.2996,-2.2995,-2.2989,-2.2985,-2.2983,-2.2978,-2.2976,-2.2976,-2.2964,-2.2968,-2.2967,-2.2965,-2.2953,-2.2951,-2.2951,-2.2951,-2.2943,-2.2943,-2.2943,-2.2943,-2.2956,-2.2956,0,0,0,0,0,0,-2.2998,-2.2996,-2.299,-2.2989,-2.2988,-2.2978,-2.2976,-2.2976,-2.2964,-2.2962,-2.2966,-2.2965,-2.2952,-2.2951,-2.295,-2.2958,-2.2943,-2.2943,-2.2943,-2.2955,-2.2956,-2.2956,0,0,0,0,0,0,-2.2999,-2.2998,-2.299,-2.2992,-2.299,-2.2978,-2.2978,-2.2976,-2.2974,-2.2962,-2.296,-2.2967,-2.2952,-2.295,-2.2952,-2.2957,-2.2943,-2.2943,-2.2955,-2.2955,-2.2956,-2.2974,0,0,0,0,0,0,-2.2999,-2.2998,-2.3002,-2.2992,-2.299,-2.2993,-2.2979,-2.2976,-2.2974,-2.2972,-2.2962,-2.296,-2.2951,-2.2952,-2.2952,-2.2957,-2.2943,-2.2954,-2.2955,-2.2956,-2.2973,-2.2976,-2.2978,0,0,0,0,0,-2.2999,-2.3008,-2.3002,-2.3002,-2.2995,-2.2993,-2.2992,-2.2982,-2.2975,-2.2978,-2.297,-2.2961,-2.2957,-2.2952,-2.2952,-2.2957,-2.2954,-2.2955,-2.2956,-2.2972,-2.2975,-2.2978,0,0,0,0,0,0,-2.3019,-2.3007,-2.3,-2.3006,-2.3001,-2.299,-2.2994,-2.2985,-2.2982,-2.298,-2.2967,-2.2965,-2.2967,-2.2962,-2.2958,-2.2963,-2.2954,-2.2954,-2.2967,-2.2969,-2.2971,-2.2972,-2.2943,0,0,0,0,0,-2.3024,-2.3024,-2.3013,-2.302,-2.3017,-2.3006,-2.3005,-2.2997,-2.2991,-2.2989,-2.2981,-2.2975,-2.2972,-2.297,-2.2967,-2.2972,-2.2969,-2.2975,-2.2978,-2.2979,-2.298,-2.2981,-2.2983,-2.2959,-2.2959,-2.2959,0,0,-2.3035,-2.3028,-2.3029,-2.3023,-2.3018,-2.3018,-2.3004,-2.3005,-2.3004,-2.2989,-2.2989,-2.2983,-2.2975,-2.2978,-2.2979,-2.2974,-2.2986,-2.2981,-2.2982,-2.2982,-2.2982,-2.2984,-2.2986,-2.296,-2.296,-2.296,0,0,-2.3053,-2.3049,-2.3053,-2.3048,-2.304,-2.3032,-2.3033,-2.3023,-2.3019,-2.3019,-2.3007,-2.3005,-2.3001,-2.2996,-2.2992,-2.3007,-2.2998,-2.3006,-2.3017,-2.3018,-2.302,-2.3021,-2.3025,-2.3027,-2.3007,-2.3007,-2.3007,0,-2.3067,-2.3067,-2.3056,-2.3056,-2.3053,-2.304,-2.3042,-2.3038,-2.303,-2.3028,-2.3022,-2.3016,-2.301,-2.301,-2.3013,-2.3012,-2.3011,-2.3007,-2.3021,-2.3022,-2.3023,-2.3027,-2.3028,-2.3008,-2.3008,-2.3008,-2.3008,0,-2.3083,-2.3083,-2.3086,-2.3079,-2.3076,-2.3078,-2.3067,-2.3065,-2.3058,-2.305,-2.3049,-2.3041,-2.3036,-2.3035,-2.3028,-2.3034,-2.3031,-2.3023,-2.3013,-2.3027,-2.303,-2.3031,-2.301,-2.3009,-2.3009,-2.3009,0,0,-2.3114,-2.3099,-2.3101,-2.3096,-2.3086,-2.3085,-2.3086,-2.308,-2.3079,-2.3073,-2.3072,-2.3069,-2.3061,-2.3057,-2.3049,-2.3049,-2.3059,-2.3041,-2.3041,-2.3044,-2.3064,-2.3069,-2.3071,-2.3053,-2.3053,-2.3054,-2.3064,0,-2.313,-2.313,-2.312,-2.3123,-2.3121,-2.3107,-2.3108,-2.3101,-2.3094,-2.3091,-2.3082,-2.3079,-2.307,-2.3067,-2.3067,-2.3058,-2.3063,-2.3057,-2.3051,-2.3051,-2.3053,-2.3072,-2.3078,-2.3088,-2.3065,-2.3065,-2.3066,0,-2.3148,-2.3143,-2.3146,-2.3135,-2.3134,-2.3134,-2.3127,-2.3125,-2.3117,-2.3111,-2.3106,-2.3096,-2.3094,-2.3085,-2.3082,-2.3078,-2.3075,-2.307,-2.307,-2.3069,-2.3059,-2.307,-2.3092,-2.3093,-2.3067,-2.3067,-2.3067,0,-2.3169,-2.3163,-2.3163,-2.316,-2.3147,-2.3148,-2.3142,-2.3133,-2.313,-2.3124,-2.3121,-2.3115,-2.3111,-2.3106,-2.3094,-2.3089,-2.3091,-2.3082,-2.3085,-2.3086,-2.3086,-2.3086,-2.3106,-2.3086,-2.3086,-2.3086,-2.3086,0,-2.3187,-2.3189,-2.3172,-2.3173,-2.3174,-2.3161,-2.3162,-2.3155,-2.3147,-2.3145,-2.3133,-2.3131,-2.3116,-2.3112,-2.3102,-2.31,-2.3099,-2.3093,-2.309,-2.3094,-2.3094,-2.3091,-2.309,-2.3086,-2.3086,-2.3086,-2.3086,0,-2.3209,-2.3199,-2.3198,-2.3186,-2.3183,-2.3184,-2.3173,-2.3172,-2.3163,-2.316,-2.3159,-2.3145,-2.314,-2.3128,-2.3119,-2.3112,-2.3112,-2.3108,-2.3115,-2.3113,-2.3117,-2.3116,-2.3135,-2.3136,-2.3116,-2.3116,-2.3116,0,-2.3221,-2.3222,-2.321,-2.3207,-2.3202,-2.3199,-2.3195,-2.3183,-2.3179,-2.3169,-2.3169,-2.3162,-2.3156,-2.3147,-2.3136,-2.3129,-2.3124,-2.3131,-2.3123,-2.3125,-2.3122,-2.3122,-2.3122,-2.3132,-2.3133,-2.3133,-2.3133,0,-2.3243,-2.3237,-2.3233,-2.3226,-2.3222,-2.3216,-2.321,-2.3208,-2.3194,-2.319,-2.3184,-2.318,-2.317,-2.3163,-2.3154,-2.3147,-2.3137,-2.3136,-2.3136,-2.3139,-2.3143,-2.3139,-2.3119,-2.3135,-2.3135,-2.3135,-2.3135,-2.3135,-2.3259,-2.3259,-2.325,-2.3245,-2.3238,-2.3232,-2.323,-2.3221,-2.3216,-2.3208,-2.32,-2.3195,-2.3185,-2.3171,-2.3165,-2.316,-2.3155,-2.3156,-2.3156,-2.3156,-2.3157,-2.3144,-2.3158,-2.3158,-2.3158,-2.3158,-2.3158,0,-2.3279,-2.3272,-2.3268,-2.3259,-2.3254,-2.3246,-2.3238,-2.3234,-2.323,-2.3222,-2.3216,-2.3208,-2.3201,-2.3189,-2.318,-2.3178,-2.3173,-2.3176,-2.3176,-2.3174,-2.3162,-2.3162,-2.318,-2.318,-2.318,-2.318,-2.318,-2.318,-2.3288,-2.3287,-2.328,-2.3275,-2.3268,-2.3263,-2.3258,-2.3252,-2.3245,-2.3237,-2.3231,-2.3224,-2.3213,-2.3204,-2.3196,-2.3193,-2.319,-2.3194,-2.3189,-2.3178,-2.3175,-2.3173,-2.3173,-2.3194,-2.3194,-2.3202,-2.3202,-2.3202]}]]